Location: Vihti�l�
(61.3833°N, 23.0667°E)
Time: 04:46:16
(UTC+00:00)

COSMOS 2406 - Pass Details

Date: 29 November 2020
Orbit: 840 x 866 km, 71.0° (Epoch: 19 January)

Event Time Altitude Azimuth Distance (km) Brightness Sun altitude
Exits shadow 05:18:12 15° 308° (NW) 2,185 4.7 -11.7°
Maximum altitude 05:22:33 39° 246° (WSW) 1,271 3.8 -11.3°
Drops below altitude 10° 05:27:50 10° 180° (S) 2,503 6.0 -10.7°
Sets 05:30:26 0° 173° (S) 3,439 6.9 -10.4°
